SCP
0 0 0 0 0 0 0 0 0 0 1 2 3 4 4 4 4 3 3 4 4 4 6 7 6 4 3 3 4 4 4 5 7 8 9 8 6 4 4 5 7 8 8 7
0 0 0 0 0 0 1 1 1 1 1 2 3 4 4 4 3 3 4 4 4 4 6 8 7 4 4 4 4 4 5 5 7 7 7 6 4 4 5 6 7 8 8 7
0 0 0 0 1 1 1 1 2 2 1 2 3 3 3 3 3 3 4 4 4 4 5 6 6 5 4 5 4 4 4 5 5 6 5 4 4 4 5 7 8 8 7 7
0 0 0 1 1 1 1 1 1 1 1 2 2 2 3 3 3 3 4 4 4 4 3 4 5 5 6 5 5 4 4 4 4 4 4 4 5 5 6 8 8 8 7 6
0 0 0 1 1 1 1 1 1 1 1 2 2 2 2 3 4 4 4 4 4 4 3 4 4 5 6 6 5 4 4 4 4 4 4 5 6 8 9 9 8 7 7 6
0 0 1 1 1 1 1 1 1 1 1 2 2 2 2 3 4 4 4 4 4 4 5 5 4 4 6 6 5 4 4 5 5 5 5 7 9 11 11 9 8 6 5 5
0 0 1 1 1 1 1 1 1 1 1 2 2 2 3 4 4 4 4 4 5 6 6 6 5 5 6 7 7 5 5 5 5 5 6 7 10 12 11 9 7 5 4 4
0 1 1 1 1 2 2 2 2 2 2 2 2 3 4 4 4 3 4 5 5 6 6 6 6 6 7 7 7 6 5 5 6 6 6 7 9 10 9 7 6 5 4 4
1 1 1 1 1 1 2 2 2 2 2 2 2 3 3 4 3 3 4 4 5 6 6 6 6 6 7 7 7 6 6 6 7 7 6 7 8 7 6 5 5 5 4 4
1 1 1 1 1 1 1 1 1 1 2 2 2 3 3 3 3 4 4 5 6 7 7 7 8 8 8 7 7 7 7 7 8 8 7 6 6 6 5 5 5 5 4 4
1 1 1 1 1 1 1 1 1 1 1 2 2 3 3 3 3 4 5 7 7 8 8 8 9 10 9 7 7 7 8 8 8 8 7 6 6 5 5 5 5 5 4 4
1 1 1 1 1 1 1 1 1 1 1 1 2 3 3 3 3 4 6 7 8 8 8 7 7 9 9 7 6 7 7 7 7 7 8 8 8 7 6 5 4 3 3 3
0 0 0 0 0 0 0 1 1 1 1 1 2 3 3 3 3 3 5 6 6 6 5 5 5 6 7 6 6 6 6 7 7 7 8 9 9 9 7 5 4 3 2 2
0 0 0 0 0 0 0 0 1 1 1 1 2 2 3 3 4 3 4 4 4 4 4 5 5 5 6 6 6 6 6 6 7 7 7 8 9 9 8 6 6 5 3 2
0 0 0 0 0 0 0 0 1 1 1 1 2 2 3 3 4 3 4 4 4 4 5 6 5 6 6 6 6 6 6 5 6 7 7 7 8 8 8 8 8 8 6 5
0 0 0 0 0 0 0 0 0 1 1 1 1 2 2 3 4 4 4 4 4 5 6 6 6 6 6 7 7 6 6 6 6 7 6 6 6 7 8 9 9 9 9 8
0 0 0 0 1 1 0 0 0 0 1 1 1 1 2 3 4 4 4 5 5 6 6 6 5 5 6 6 6 6 6 6 6 6 6 6 6 7 8 9 9 9 10 10
0 0 0 0 1 1 1 0 0 0 1 1 1 1 2 3 4 5 5 6 6 6 6 5 5 5 5 5 5 6 6 6 6 6 6 6 6 7 8 8 8 9 9 9
0 0 0 0 1 1 1 1 1 1 1 1 1 1 2 3 4 5 6 7 7 6 5 4 5 5 6 6 5 6 7 8 8 7 7 6 7 8 9 9 9 10 11 11
0 0 0 0 1 1 1 1 1 1 1 1 1 1 2 3 5 6 6 7 7 6 4 4 4 5 6 6 6 7 9 10 10 9 8 7 7 8 9 10 11 12 12 11
0 0 0 1 1 1 1 1 1 1 1 1 1 1 2 3 4 4 4 4 5 4 3 3 4 5 6 5 5 7 10 11 11 10 8 7 7 8 9 10 11 10 9 8
0 1 1 1 1 1 1 1 1 1 1 1 1 1 1 2 2 2 2 2 3 2 1 2 2 3 4 4 4 6 9 10 9 8 7 6 7 7 8 8 8 7 6 4
1 1 1 1 1 1 1 1 1 1 1 1 1 1 1 1 1 1 2 2 2 1 1 1 1 1 1 2 3 5 6 7 7 7 6 6 6 6 6 6 6 5 4 3
1 1 2 2 1 1 1 1 1 1 1 1 1 1 1 1 1 2 2 2 1 0 0 0 0 0 1 2 3 5 5 6 6 6 5 5 5 5 5 5 5 5 4 3
2 2 2 2 1 1 1 1 1 1 1 1 1 1 1 1 1 2 2 1 1 0 0 0 0 0 1 2 4 5 5 5 5 4 4 3 3 3 3 3 3 3 2 2
2 3 3 2 1 1 1 1 1 1 0 0 0 0 0 1 1 1 1 1 0 0 0 0 0 0 1 2 4 4 4 3 3 3 3 2 2 2 2 2 1 1 1 1
2 2 3 2 1 1 1 1 1 0 0 0 0 0 0 1 1 1 1 1 0 0 0 0 0 0 1 2 3 4 3 3 2 2 2 2 2 1 1 1 1 1 1 1
Wind_Speed
11 8 9 10 11 12 14 14 14 11 9 6 4 4 3 3 2 2 3 5 5 6 5 6 6 7 7 6 6 7 8 8 8 8 8 7 7 7 7 7 8 7 7 6
12 10 11 13 13 13 14 14 15 14 10 5 2 2 2 2 2 2 3 4 5 6 6 6 6 7 7 7 7 7 7 7 7 7 8 8 8 7 7 7 7 7 7 7
12 9 11 15 12 12 12 11 11 11 7 4 3 2 2 3 2 2 2 2 4 5 5 5 6 7 7 7 7 7 7 6 7 7 7 8 8 8 8 8 8 7 7 6
10 9 16 5 2 5 7 7 7 7 5 3 3 3 2 3 4 3 3 2 2 3 5 5 6 7 7 7 7 7 7 6 7 7 7 7 7 7 7 7 6 6 6 7
10 13 14 7 3 5 8 7 4 4 3 3 3 4 2 2 4 4 4 3 2 2 3 4 5 6 8 8 7 7 7 7 7 7 7 7 7 7 7 6 6 6 6 7
10 13 14 4 1 2 7 8 0 2 2 3 3 5 0 5 5 5 4 2 1 1 2 4 4 6 8 8 7 7 7 6 6 6 7 7 7 6 6 6 6 6 6 7
14 14 9 3 1 4 9 2 3 1 1 2 3 4 4 4 4 4 4 3 1 0 2 2 3 5 6 7 7 6 6 6 6 6 6 6 5 6 6 6 6 6 6 6
10 13 7 4 0 4 3 3 1 2 2 2 3 3 3 3 3 4 3 3 2 0 1 1 2 4 5 5 5 5 5 5 6 6 6 5 6 6 6 6 7 7 6 6
6 4 4 2 2 3 3 3 3 3 3 3 3 3 3 3 3 3 3 2 2 1 1 1 1 2 3 3 3 5 6 6 5 5 5 5 6 6 6 6 6 6 6 6
7 5 3 3 2 3 4 4 4 4 4 3 4 4 4 4 4 4 3 3 2 1 1 1 1 1 2 2 3 4 5 5 5 5 5 5 5 5 6 6 6 6 6 5
8 7 6 4 4 4 4 4 4 5 5 5 4 4 4 4 4 4 3 3 3 2 2 2 1 2 2 2 3 3 3 3 4 5 5 5 5 4 5 5 4 5 5 5
7 5 6 5 4 5 5 5 5 5 5 5 5 5 4 4 4 4 4 4 3 3 3 3 2 2 2 2 3 3 4 4 4 4 4 5 5 5 3 3 3 4 3 4
7 8 8 7 7 7 6 6 6 6 6 6 5 5 5 4 4 4 4 5 5 4 4 4 3 3 3 3 3 4 4 4 4 4 4 5 5 5 5 4 5 6 6 6
6 7 8 8 7 7 7 7 6 7 7 6 6 5 5 5 4 5 5 5 4 4 4 4 4 4 4 4 4 5 5 5 5 4 4 4 5 5 5 5 5 5 6 7
7 7 8 7 7 6 6 6 6 5 5 5 5 5 5 5 5 5 5 5 5 5 5 5 5 5 4 4 5 5 5 4 4 4 5 5 5 5 5 6 5 5 4 6
8 8 8 8 7 7 6 6 6 6 5 5 5 5 5 5 5 6 5 5 5 6 5 5 6 6 5 5 5 6 5 5 5 5 5 5 5 5 5 5 5 5 5 4
8 7 7 7 7 7 6 6 6 6 6 6 5 5 5 6 6 6 6 6 5 6 6 6 6 6 6 6 6 5 5 5 7 7 5 5 5 5 5 5 5 5 5 4
8 8 7 7 6 6 6 6 6 7 6 6 6 5 6 6 6 6 6 6 6 6 6 6 5 5 6 6 6 5 5 5 5 5 5 5 5 5 5 5 5 6 5 6
6 6 6 6 6 6 6 6 7 6 6 6 6 6 7 7 7 6 6 6 6 6 6 5 4 6 6 6 5 6 6 6 5 5 5 5 6 6 5 5 5 5 5 5
5 5 5 5 5 6 6 6 6 6 6 6 6 7 7 6 6 6 6 6 5 5 4 4 5 6 6 5 5 6 6 6 6 5 4 5 5 5 5 5 5 5 5 5
4 5 5 5 5 5 6 6 6 6 6 6 6 7 6 6 5 4 5 5 4 4 4 4 5 4 4 3 5 6 5 5 5 5 4 4 4 4 4 4 4 4 4 4
4 5 6 5 5 5 5 5 5 5 5 5 6 5 5 5 4 4 4 4 4 3 4 4 4 2 2 4 5 5 5 5 4 4 4 4 4 4 4 4 3 4 4 4
5 5 5 5 5 5 5 4 3 3 4 4 4 4 4 4 3 4 4 3 3 3 4 3 2 1 3 5 4 4 4 4 4 3 3 3 3 3 3 4 3 3 4 4
6 5 5 4 4 4 3 3 3 3 3 3 3 3 3 3 3 3 3 2 2 2 4 2 1 1 5 4 3 3 3 3 3 3 3 3 3 3 3 3 3 4 4 4
5 5 4 4 4 3 2 3 3 3 3 2 2 2 3 3 3 3 3 2 1 2 3 0 1 3 4 3 3 3 3 2 2 2 2 3 3 3 3 3 3 3 2 2
5 4 3 3 3 3 3 3 2 2 2 2 2 2 2 2 3 3 2 2 2 3 3 2 2 3 3 2 2 2 2 2 3 3 2 2 2 3 2 2 3 3 2 2
4 3 2 2 2 3 3 3 3 3 2 2 2 2 2 2 2 2 2 2 2 2 2 2 2 3 2 2 1 2 2 2 2 2 2 2 2 2 2 3 2 2 2 2
Wind_Direction
266 274 265 258 252 242 242 256 266 274 278 284 295 305 310 301 261 218 203 196 192 190 183 185 181 180 183 187 186 189 191 194 191 193 195 195 197 200 201 204 204 201 202 203
253 252 257 258 254 250 248 254 261 267 273 307 302 293 288 285 268 239 213 204 197 195 190 190 185 180 178 183 181 184 192 194 187 189 193 195 199 203 203 203 204 202 203 204
257 249 253 250 248 248 246 251 262 266 282 301 281 266 275 293 291 293 276 223 207 201 200 198 190 181 180 183 181 182 188 191 189 193 197 200 201 200 202 200 198 201 205 208
260 249 248 261 315 262 250 260 275 281 298 291 287 287 312 322 320 320 315 280 223 209 197 194 187 179 180 177 179 183 184 189 195 197 198 201 202 201 202 199 199 200 206 212
254 249 251 232 232 253 254 250 289 288 296 298 283 250 225 20 354 336 327 310 260 222 200 189 185 177 173 173 174 181 186 190 194 197 197 199 202 200 200 198 201 202 204 211
247 255 259 265 60 284 260 240 5 312 302 308 278 250 79 22 356 357 351 344 315 192 190 184 180 176 175 175 176 182 187 189 193 198 199 200 203 203 199 200 203 206 204 210
247 252 256 341 340 225 240 285 59 354 324 302 293 318 341 337 348 352 350 355 8 167 189 169 175 178 182 181 184 186 187 185 188 195 201 200 200 200 198 201 203 209 206 211
246 251 253 38 198 262 331 22 10 348 332 330 333 335 333 327 330 331 338 358 7 36 134 140 166 177 182 185 183 184 186 190 191 195 205 193 196 199 202 202 200 204 206 212
273 291 24 13 308 321 315 311 323 327 330 322 312 316 326 328 323 320 320 335 341 18 104 120 159 177 186 179 180 185 187 191 195 194 200 198 198 198 200 203 211 207 207 210
269 265 286 285 298 312 311 308 309 311 307 303 302 309 316 323 323 320 321 318 311 274 204 180 185 193 205 181 187 192 192 194 196 198 199 194 205 208 211 211 216 213 213 216
259 270 277 263 285 298 308 312 311 308 301 298 295 294 300 306 313 315 313 310 294 266 247 230 227 231 224 191 193 202 203 205 209 208 205 203 207 214 219 219 225 229 225 218
272 285 280 283 292 306 304 298 297 295 294 295 290 288 291 293 296 297 298 298 282 268 260 249 232 228 225 212 211 212 214 218 222 221 211 212 208 207 197 227 189 202 248 266
286 299 291 287 286 285 286 289 291 289 287 287 285 280 282 283 284 288 289 285 274 264 259 251 239 231 224 220 220 221 227 228 236 234 225 221 219 221 212 195 189 197 207 224
285 284 278 278 280 280 279 282 284 283 284 285 279 275 276 278 282 288 290 286 273 260 252 245 239 238 231 223 225 230 233 220 233 238 239 232 229 227 226 220 210 206 198 202
279 276 278 283 280 279 279 279 277 280 282 283 280 275 278 283 285 287 291 289 277 262 253 249 246 246 238 233 234 238 241 238 235 242 241 239 236 231 227 224 225 219 204 176
287 280 277 276 272 271 273 276 277 279 282 285 285 285 288 287 284 283 285 281 270 267 263 257 254 250 239 234 236 238 236 230 240 245 240 237 235 233 229 225 225 221 217 206
284 279 276 274 271 271 275 280 283 283 282 283 284 284 280 281 282 283 284 279 270 267 261 255 252 247 239 233 236 242 244 226 217 238 240 239 236 235 233 229 225 223 224 197
277 276 273 273 274 276 281 285 286 282 278 277 281 280 277 273 276 282 285 284 278 271 267 261 255 245 237 232 235 246 247 247 237 237 238 236 239 240 237 232 229 231 226 182
291 289 285 280 277 272 272 276 280 280 276 271 272 274 274 273 271 271 273 275 271 265 265 266 259 250 244 237 240 241 244 243 240 235 234 223 227 234 234 231 230 230 227 212
309 303 295 289 282 276 275 275 275 275 274 272 273 274 275 276 272 272 273 273 276 283 284 280 261 253 250 237 237 244 245 246 245 240 234 233 233 232 232 232 230 229 227 224
315 308 301 298 293 286 281 279 275 275 276 274 273 275 280 282 280 278 278 280 285 288 285 272 259 257 256 256 237 250 248 247 246 242 238 236 238 238 235 230 227 228 230 234
314 309 305 303 300 295 291 286 282 278 279 282 281 282 284 283 283 283 282 285 290 293 275 264 263 274 283 270 253 257 254 250 248 243 239 239 239 239 238 234 234 234 231 229
306 304 301 298 299 298 296 296 289 279 280 284 288 291 294 300 298 290 289 295 295 301 286 287 327 7 267 257 259 260 256 251 245 243 242 240 239 239 237 232 236 240 239 236
306 302 299 297 293 292 295 301 295 283 274 276 282 287 291 286 280 279 284 287 291 294 291 329 100 249 257 256 258 256 251 244 240 237 236 233 232 238 243 241 236 236 236 232
302 299 297 292 287 290 291 284 278 273 271 279 284 271 276 284 290 299 298 294 299 276 286 312 204 243 253 255 245 243 240 236 236 233 223 220 220 220 228 234 238 239 235 233
306 301 304 300 306 301 296 292 299 306 305 296 288 289 294 296 292 289 287 288 280 273 282 282 258 246 256 261 244 237 229 198 199 213 221 226 225 231 232 224 222 224 216 216
315 322 312 309 308 313 315 317 318 321 318 309 302 306 308 300 299 305 302 287 273 275 281 272 260 260 270 274 262 249 246 240 232 228 219 222 234 234 223 221 226 222 220 215